• In Spain
  • List of Countries
  • For 7 days
  • Water Temperature
  • Satellite Maps
  • Weather Map
  • Weather Widgets
  • user-avatar
    Login

    Hourly Weather Konstantyna

    Today, 23 September, Saturday

    Time Temperature Precipitation Wind Pressure Humidity
    00:00 +24°C° 0 mm 1 mps 712 mmHg 60%
    01:00 +24°C° 0.2 mm 1 mps 712 mmHg 58%
    02:00 +24°C° 0.2 mm 1 mps 712 mmHg 56%
    03:00 +24°C° 0.2 mm 2 mps 712 mmHg 54%
    04:00 +24°C° 0.1 mm 2 mps 712 mmHg 53%
    05:00 +24°C° 0.1 mm 3 mps 712 mmHg 53%
    06:00 +23°C° 0 mm 4 mps 713 mmHg 50%
    07:00 +24°C° 0 mm 3 mps 713 mmHg 47%
    08:00 +25°C° 0 mm 2 mps 713 mmHg 44%
    09:00 +25°C° 0 mm 2 mps 714 mmHg 41%
    10:00 +27°C° 0 mm 2 mps 714 mmHg 37%
    11:00 +28°C° 0 mm 2 mps 714 mmHg 33%
    12:00 +30°C° 0 mm 2 mps 714 mmHg 28%
    13:00 +30°C° 0 mm 2 mps 713 mmHg 28%
    14:00 +31°C° 0 mm 3 mps 713 mmHg 27%
    15:00 +31°C° 0 mm 3 mps 713 mmHg 26%
    16:00 +30°C° 0 mm 3 mps 712 mmHg 30%
    17:00 +29°C° 0 mm 3 mps 712 mmHg 35%
    18:00 +28°C° 0 mm 3 mps 712 mmHg 39%
    19:00 +27°C° 0.1 mm 2 mps 712 mmHg 43%
    20:00 +26°C° 0.1 mm 2 mps 712 mmHg 46%
    21:00 +25°C° 0.1 mm 1 mps 712 mmHg 50%
    22:00 +25°C° 0 mm 1 mps 712 mmHg 49%
    23:00 +24°C° 0 mm 1 mps 712 mmHg 49%

    Tomorrow, 24 September, Sunday

    Time Temperature Precipitation Wind Pressure Humidity
    00:00 +24°C° 0 mm 1 mps 712 mmHg 49%
    01:00 +24°C° 0.1 mm 1 mps 712 mmHg 50%
    02:00 +23°C° 0.1 mm 1 mps 712 mmHg 51%
    03:00 +23°C° 0.1 mm 2 mps 712 mmHg 52%
    04:00 +23°C° 0.3 mm 1 mps 712 mmHg 56%
    05:00 +22°C° 0.3 mm 1 mps 712 mmHg 60%
    06:00 +22°C° 0.3 mm 1 mps 712 mmHg 64%
    07:00 +23°C° 0 mm 1 mps 712 mmHg 61%
    08:00 +24°C° 0 mm 2 mps 713 mmHg 57%
    09:00 +25°C° 0 mm 2 mps 713 mmHg 54%
    10:00 +26°C° 0.1 mm 3 mps 713 mmHg 52%
    11:00 +27°C° 0.1 mm 3 mps 713 mmHg 50%
    12:00 +27°C° 0.1 mm 4 mps 714 mmHg 48%
    13:00 +27°C° 0 mm 4 mps 713 mmHg 48%
    14:00 +27°C° 0 mm 4 mps 713 mmHg 49%
    15:00 +27°C° 0 mm 4 mps 713 mmHg 49%
    16:00 +26°C° 0 mm 3 mps 713 mmHg 54%
    17:00 +25°C° 0 mm 3 mps 713 mmHg 59%
    18:00 +22°C° 0 mm 3 mps 713 mmHg 64%
    19:00 +23°C° 0 mm 2 mps 713 mmHg 68%
    20:00 +21°C° 0 mm 2 mps 713 mmHg 71%
    21:00 +21°C° 0 mm 1 mps 713 mmHg 75%
    22:00 +21°C° 0 mm 1 mps 713 mmHg 77%
    23:00 +21°C° 0 mm 1 mps 713 mmHg 79%

    Day after tomorrow, 25 September, Monday

    Time Temperature Precipitation Wind Pressure Humidity
    00:00 +20°C° 0 mm 1 mps 713 mmHg 81%
    01:00 +20°C° 0 mm 1 mps 713 mmHg 81%
    02:00 +18°C° 0 mm 0 mps 712 mmHg 82%
    03:00 +17°C° 0 mm 0 mps 712 mmHg 83%
    04:00 +17°C° 0 mm 0 mps 712 mmHg 82%
    05:00 +17°C° 0 mm 0 mps 712 mmHg 81%
    06:00 +17°C° 0 mm 0 mps 712 mmHg 79%
    07:00 +19°C° 0 mm 0 mps 712 mmHg 70%
    08:00 +21°C° 0 mm 0 mps 713 mmHg 61%
    09:00 +22°C° 0 mm 0 mps 713 mmHg 51%
    10:00 +26°C° 0 mm 1 mps 713 mmHg 44%
    11:00 +27°C° 0 mm 1 mps 713 mmHg 37%
    12:00 +28°C° 0 mm 1 mps 713 mmHg 30%
    13:00 +28°C° 0 mm 2 mps 713 mmHg 29%
    14:00 +28°C° 0 mm 2 mps 712 mmHg 29%
    15:00 +28°C° 0 mm 3 mps 712 mmHg 28%
    16:00 +27°C° 0 mm 3 mps 712 mmHg 32%
    17:00 +26°C° 0 mm 3 mps 712 mmHg 37%
    18:00 +25°C° 0 mm 3 mps 712 mmHg 42%
    19:00 +24°C° 0 mm 2 mps 712 mmHg 46%
    20:00 +23°C° 0 mm 2 mps 712 mmHg 49%
    21:00 +22°C° 0 mm 1 mps 712 mmHg 53%
    22:00 +22°C° 0 mm 1 mps 712 mmHg 54%
    23:00 +21°C° 0 mm 1 mps 712 mmHg 54%

    26 September, Tuesday

    Time Temperature Precipitation Wind Pressure Humidity
    00:00 +19°C° 0 mm 0 mps 712 mmHg 55%
    01:00 +19°C° 0 mm 0 mps 712 mmHg 55%
    02:00 +18°C° 0 mm 0 mps 711 mmHg 56%
    03:00 +18°C° 0 mm 0 mps 711 mmHg 56%
    04:00 +18°C° 0 mm 0 mps 711 mmHg 55%
    05:00 +18°C° 0 mm 0 mps 711 mmHg 55%
    06:00 +18°C° 0 mm 0 mps 711 mmHg 54%
    07:00 +20°C° 0 mm 0 mps 712 mmHg 48%
    08:00 +22°C° 0 mm 0 mps 712 mmHg 41%
    09:00 +24°C° 0 mm 0 mps 713 mmHg 34%
    10:00 +27°C° 0 mm 1 mps 713 mmHg 30%
    11:00 +28°C° 0 mm 1 mps 713 mmHg 27%
    12:00 +29°C° 0 mm 1 mps 712 mmHg 23%
    13:00 +29°C° 0 mm 2 mps 712 mmHg 23%
    14:00 +29°C° 0 mm 2 mps 712 mmHg 22%
    15:00 +29°C° 0 mm 2 mps 712 mmHg 22%
    16:00 +28°C° 0 mm 2 mps 712 mmHg 26%
    17:00 +27°C° 0 mm 2 mps 712 mmHg 30%
    18:00 +26°C° 0 mm 2 mps 711 mmHg 34%
    19:00 +25°C° 0 mm 2 mps 712 mmHg 37%
    20:00 +24°C° 0 mm 1 mps 712 mmHg 40%
    21:00 +23°C° 0 mm 1 mps 712 mmHg 43%
    22:00 +23°C° 0 mm 1 mps 712 mmHg 44%
    23:00 +22°C° 0 mm 1 mps 712 mmHg 45%

    27 September, Wednesday

    Time Temperature Precipitation Wind Pressure Humidity
    00:00 +22°C° 0 mm 1 mps 712 mmHg 46%
    01:00 +22°C° 0 mm 1 mps 712 mmHg 46%
    02:00 +21°C° 0 mm 1 mps 711 mmHg 45%
    03:00 +21°C° 0 mm 1 mps 711 mmHg 45%
    04:00 +21°C° 0 mm 1 mps 711 mmHg 45%
    05:00 +21°C° 0 mm 1 mps 712 mmHg 44%
    06:00 +21°C° 0 mm 1 mps 712 mmHg 44%
    07:00 +23°C° 0 mm 1 mps 712 mmHg 40%
    08:00 +25°C° 0 mm 1 mps 713 mmHg 37%
    09:00 +27°C° 0 mm 2 mps 713 mmHg 33%
    10:00 +28°C° 0 mm 2 mps 713 mmHg 31%
    11:00 +29°C° 0 mm 3 mps 713 mmHg 30%
    12:00 +30°C° 0 mm 4 mps 713 mmHg 28%
    13:00 +29°C° 0 mm 4 mps 713 mmHg 30%
    14:00 +29°C° 0 mm 4 mps 713 mmHg 33%
    15:00 +29°C° 0 mm 4 mps 713 mmHg 35%
    16:00 +27°C° 0 mm 4 mps 713 mmHg 42%
    17:00 +26°C° 0 mm 3 mps 713 mmHg 49%
    18:00 +24°C° 0 mm 3 mps 713 mmHg 56%
    19:00 +23°C° 0 mm 2 mps 713 mmHg 62%
    20:00 +21°C° 0 mm 2 mps 714 mmHg 67%
    21:00 +21°C° 0 mm 1 mps 714 mmHg 72%
    22:00 +21°C° 0 mm 1 mps 714 mmHg 75%
    23:00 +20°C° 0 mm 1 mps 714 mmHg 78%

    28 September, Thursday

    Time Temperature Precipitation Wind Pressure Humidity
    00:00 +20°C° 0 mm 1 mps 714 mmHg 80%
    01:00 +19°C° 0 mm 1 mps 714 mmHg 82%
    02:00 +19°C° 0 mm 1 mps 714 mmHg 83%
    03:00 +17°C° 0 mm 0 mps 714 mmHg 85%
    04:00 +17°C° 0 mm 0 mps 714 mmHg 85%
    05:00 +18°C° 0 mm 1 mps 714 mmHg 85%
    06:00 +18°C° 0 mm 1 mps 714 mmHg 85%
    07:00 +20°C° 0 mm 1 mps 714 mmHg 75%
    08:00 +21°C° 0 mm 1 mps 715 mmHg 65%
    09:00 +21°C° 0 mm 2 mps 715 mmHg 55%
    10:00 +24°C° 0 mm 2 mps 715 mmHg 50%
    11:00 +25°C° 0 mm 3 mps 715 mmHg 45%
    12:00 +26°C° 0 mm 3 mps 715 mmHg 39%
    13:00 +26°C° 0 mm 4 mps 715 mmHg 41%
    14:00 +26°C° 0 mm 4 mps 715 mmHg 42%
    15:00 +25°C° 0 mm 4 mps 715 mmHg 43%
    16:00 +23°C° 0 mm 4 mps 715 mmHg 50%
    17:00 +22°C° 0 mm 4 mps 715 mmHg 57%
    18:00 +20°C° 0 mm 3 mps 715 mmHg 64%
    19:00 +19°C° 0 mm 3 mps 715 mmHg 67%
    20:00 +19°C° 0 mm 2 mps 715 mmHg 71%
    21:00 +19°C° 0 mm 1 mps 716 mmHg 75%
    22:00 +19°C° 0 mm 1 mps 715 mmHg 77%
    23:00 +18°C° 0 mm 1 mps 715 mmHg 78%
    Show more